Regional Weather Roundup
Issued by NWS

Home | Current Version | Previous Version | Graphics & Text | Print | Product List | Glossary On
Versions: 1 2 3 4 5 6 7 8 9 10 11 12 13 14 15 16 17 18 19 20 21 22 23 24 25 26 27 28 29 30 31 32 33 34 35 36 37 38 39 40 41 42 43 44 45 46 47 48 49 50
000
ASUS44 KMEG 050310
RWRTN
TENNESSEE HOURLY STATE WEATHER ROUNDUP
NATIONAL WEATHER SERVICE MEMPHIS TN
1000 PM CDT TUE AUG 04 2015

TNZ002-004-019-021-049-052-054-088>092-050400-
WEST TENNESSEE

CITY           SKY/WX    TMP DP  RH WIND       PRES   REMARKS
MEMPHIS INTL   CLOUDY    89  68  49 E6        29.98R HX  93
NWS MEMPHIS      N/A     83 N/A N/A MISG        N/A
JACKSON        CLOUDY    79  75  87 CALM      30.00R
DYERSBURG        N/A    N/A N/A N/A MISG        N/A
UNION CITY     CLEAR     79  75  89 CALM      29.98S
PARIS          CLEAR     75  73  94 CALM      30.01S
LEXINGTON      CLEAR     79  77  94 CALM      30.00S
$$

TNZ008-025-027-028-033-062-065-066-050400-
NORTH MIDDLE TENNESSEE

CITY           SKY/WX    TMP DP  RH WIND       PRES   REMARKS
NASHVILLE      MOCLDY    84  68  58 CALM      30.02R
CLARKSVILLE    CLOUDY    78  66  66 E7        30.03R
SMYRNA         MOCLDY    80  72  76 CALM      30.03R
COOKEVILLE     PTCLDY    77  75  94 CALM      30.05R
CROSSVILLE     MOCLDY    76  70  82 CALM      30.12R
$$

TNZ061-075-076-078-094-096-097-050400-
SOUTH MIDDLE TENNESSEE

CITY           SKY/WX    TMP DP  RH WIND       PRES   REMARKS
FAYETTEVILLE     N/A     81  66  61 CALM      30.04R
TULLAHOMA      CLEAR     79  72  78 CALM      30.06R
WINCHESTER     CLEAR     75  72  88 CALM      30.04S
MCMINNVILLE    PTCLDY    77  75  94 E39       30.05S SQUALL
COLUMBIA       CLEAR     81  81 100 CALM      30.02R HX  91
SHELBYVILLE    CLEAR     79  73  83 CALM      30.04R
$$

TNZ017-018-042-046-047-050400-
NORTHEAST TENNESSEE

CITY           SKY/WX    TMP DP  RH WIND       PRES   REMARKS
TRI CITIES     CLOUDY    68  67  96 CALM      30.09S
ELIZABETHTON   CLEAR     64  64 100 CALM      30.11S
$$

TNZ012-013-036-069-073-074-050400-
CENTRAL EAST TENNESSEE

CITY           SKY/WX    TMP DP  RH WIND       PRES   REMARKS
KNOXVILLE      MOCLDY    81  68  64 NE9       30.04R
OAK RIDGE      MOCLDY    80  70  71 NE3       30.07R
GATLINBURG     CLEAR     79  64  61 CALM      30.06R
MORRISTOWN     CLEAR     72  64  78 CALM      30.09S
$$

TNZ083-085-099-050400-
SOUTHEAST TENNESSEE

CITY           SKY/WX    TMP DP  RH WIND       PRES   REMARKS
CHATTANOOGA    MOCLDY    81  72  74 CALM      30.02R
$$

SKY/WX REPORTED AS FAIR MEANS FEW OR NO CLOUDS BELOW
12 THOUSAND FEET.



USA.gov is the U.S. government's official web portal to all federal, state and local government web resources and services.